User: anonymous   Login
Location: Unspecified
(0.0000°N, 0.0000°E)
Time: 09:09:13
(UTC+00:00)
Language:

ANNA 1B - Orbit

View from above orbital plane
View from above orbital plane
View from above satellite
View from above satellite

Ground track
Ground track

The orbit data is extracted from the following two-line orbital elements,

1 00446U 62060A   18109.89985510 -.00000114  00000-0  24153-4 0  9998
2 00446  50.1426 326.4598 0070268 169.8921 291.5710 13.35263619705927
Epoch (UTC): 19 April 2018 21:35:47
Eccentricity: 0.0070268
inclination: 50.1426°
perigee height: 1074 km
apogee height: 1180 km
right ascension of ascending node: 326.4598°
argument of perigee: 169.8921°
revolutions per day: 13.35263619
mean anomaly at epoch: 291.5710°
orbit number at epoch: 70592

The dashed part of the orbit path shows where the satellite is in the earth's shadow,  

DLR